Simultaneous Nadir Overpasses (SNOs) Predictions

Prediction of SNOs over PacNW region [( 10.00, 139.50) to ( 22.70, 165.60)] between AQUA and NPP Satellites:

Table of predicted SNOs over PacNW region for the next 30.0 days since TLE Epoch: 11/19/2022
Index Date (AQUA) Time (AQUA) AQUA Lat,Lon Date (NPP) Time (NPP) NPP Lat,Lon Distance(km) Time Diff (sec)
1 11/21/2022 03:49:12 15.61, 145.93 11/21/2022 03:51:09 14.61, 141.41 498.25 117
2 11/23/2022 15:50:17 10.50, 149.52 11/23/2022 15:46:55 11.14, 146.48 339.64 202
3 11/29/2022 02:55:23 10.38, 160.24 11/29/2022 02:58:47 9.34, 155.36 546.90 204
4 12/01/2022 14:56:25 15.82, 163.86 12/01/2022 14:54:31 16.51, 160.47 369.60 114
5 12/01/2022 16:33:24 22.61, 140.71 12/01/2022 16:34:02 23.48, 136.81 411.65 38
6 12/09/2022 15:40:55 22.63, 153.89 12/09/2022 15:43:06 23.64, 149.58 454.98 131
7 12/12/2022 04:01:47 22.65, 141.79 12/12/2022 03:59:14 21.94, 138.18 379.50 153
